This is the latest recevied weather packets stored in our database for station/object NI4CE-11. If no packets are shown the sender has not sent any weather packets the latest 10 day(s).
| Time | Temp. | Humidity | Pressure | Rain* | Wind** | Luminosity | Snow |
|---|---|---|---|---|---|---|---|
| 1777595568 | 28.33° C | 100% | 1011.8 hPa | 0 mm | - | - | - |
| 1777595414 | 28.33° C | 100% | 1012 hPa | 0 mm | - | - | - |
| 1777595114 | 27.78° C | 100% | 1011.8 hPa | 0 mm | - | - | - |
| 1777594814 | 28.33° C | 100% | 1011.8 hPa | 0 mm | - | - | - |
| 1777594775 | 28.89° C | 100% | 1011.4 hPa | 0 mm | - | - | - |
| 1777594514 | 28.33° C | 100% | 1011.7 hPa | 0 mm | - | - | - |
| 1777594214 | 28.33° C | 100% | 1011.6 hPa | 0 mm | - | - | - |
| 1777593914 | 28.33° C | 100% | 1011.5 hPa | 0 mm | - | - | - |
| 1777593614 | 28.89° C | 100% | 1011.4 hPa | 0 mm | - | - | - |
| 1777593314 | 28.89° C | 100% | 1011.4 hPa | 0 mm | - | - | - |
| 1777593014 | 28.33° C | 100% | 1011.4 hPa | 0 mm | - | - | - |
| 1777592714 | 28.89° C | 100% | 1011.4 hPa | 0 mm | - | - | - |
| 1777592414 | 28.89° C | 100% | 1011.4 hPa | 0 mm | - | - | - |
| 1777592114 | 29.44° C | 100% | 1011.3 hPa | 0 mm | - | - | - |
| 1777591814 | 28.89° C | 100% | 1011.2 hPa | 0 mm | - | - | - |
| 1777591514 | 30° C | 100% | 1011.1 hPa | 0 mm | - | - | - |
| 1777591214 | 29.44° C | 100% | 1011.1 hPa | 0 mm | - | - | - |
| 1777590914 | 30° C | 100% | 1011 hPa | 0 mm | - | - | - |
| 1777590614 | 30° C | 100% | 1011.1 hPa | 0 mm | - | - | - |
| 1777590314 | 29.44° C | 100% | 1011.1 hPa | 0 mm | - | - | - |
| 1777590014 | 29.44° C | 100% | 1011.1 hPa | 0 mm | - | - | - |
| 1777589714 | 30° C | 100% | 1011 hPa | 0 mm | - | - | - |
| 1777589414 | 30.56° C | 100% | 1011 hPa | 0 mm | - | - | - |
| 1777589114 | 30° C | 100% | 1011 hPa | 0 mm | - | - | - |
| 1777588814 | 30.56° C | 100% | 1010.9 hPa | 0 mm | - | - | - |
* Rain latest hour (hover to see other rain measurements)
** Current wind speed in m/s (hover to see current wind gust speed)